[[{"header":{"parameterUnit":"m.s-1","parameterCategory":1,"la1":30.2991,"la2":30.254,"lo1":-89.0895,"lo2":-89.0444,"dy":0.0017,"dx":0.0017,"nx":28,"ny":28,"refTime":"2025-07-22T21:00:00:Z","depth":0,"parameterNumber":2,"parameterNumberName":"U-component_of_WINDS"},"data":[0,0,0,0,0,0,0,0,0,0,0,0,0,0,0,0,0,0,0,0,0,0,0,0,0,0,0,0,0,0,0,0,0,0,0,0,0,0,0,0,0,0,0,0,0,0,0,0,0,0,0,0,0,0,0,0,0,0,1.8785,1.8785,0,1.8856,1.8857,1.8858,1.8801,1.8799,1.8796,1.8794,1.8873,1.8877,1.8882,0,0,0,0,0,0,0,0,0,0,0,0,0,1.8605,1.8609,1.8784,1.8785,1.8786,1.8856,1.8857,1.8858,1.8802,1.8799,1.8796,1.8793,1.8872,1.8877,1.8882,0,0,0,0,0,0,0,0,0,0,0,0,0,1.8681,1.861,1.8784,1.8766,1.8765,1.8856,1.8857,1.8858,1.8802,1.8799,1.8795,1.8792,1.887,1.8876,1.8883,1.8996,0,0,1.8903,1.8906,0,0,0,0,0,0,0,0,1.8677,1.8688,1.8768,1.8768,1.8767,1.8816,1.8823,1.8905,1.8803,1.8789,1.8794,1.879,1.8858,1.8865,1.8887,1.9,1.9004,1.8904,1.8908,1.891,1.8912,0,0,0,0,0,0,0,1.8671,1.8684,1.8813,1.8769,1.8769,1.8757,1.8764,1.8838,1.8843,1.879,1.8786,1.8795,1.8857,1.888,1.8888,1.9005,1.8903,1.8909,1.8913,1.8916,1.9218,1.9222,0,0,0,0,0,0,1.8667,1.868,1.8811,1.8815,1.8712,1.8763,1.8771,1.8804,1.8842,1.8844,1.8798,1.8792,1.8871,1.888,1.8891,1.9028,1.891,1.8916,1.892,1.9214,1.9219,1.9223,0,0,0,0,0,0,1.8664,1.8679,1.8808,1.8747,1.8762,1.877,1.8808,1.8807,1.8831,1.8848,1.8849,1.8821,1.8868,1.8881,1.8971,1.9029,1.8919,1.8925,1.9209,1.9215,1.9221,1.9302,0,0,0,0,0,0,1.8659,1.8678,1.872,1.8748,1.8765,1.8885,1.8812,1.8811,1.8842,1.8835,1.887,1.8872,1.8867,1.8961,1.8977,1.9037,1.893,1.9204,1.9212,1.9219,1.9294,1.931,1.9323,0,0,0,0,0,1.8652,1.874,1.8722,1.8738,1.8817,1.8888,1.8899,1.8889,1.8847,1.889,1.8901,1.8871,1.902,1.8971,1.8988,1.9051,1.92,1.921,1.9219,1.9287,1.9307,1.9323,0,0,0,0,0,0,1.8721,1.8744,1.8724,1.8823,1.8854,1.8879,1.8932,1.891,1.8955,1.8946,1.8934,1.8943,1.9037,1.9052,1.8997,1.9164,1.9104,1.9117,1.915,1.9169,1.9183,1.9178,1.8936,0,0,0,0,0,1.8747,1.8801,1.8819,1.8905,1.8921,1.8925,1.8955,1.8945,1.8977,1.8991,1.9008,1.9043,1.9097,1.9134,1.9185,1.9296,1.9304,1.9347,1.9362,1.9374,1.9386,1.9448,1.9468,1.9254,1.9253,1.9253,0,0,1.8802,1.8822,1.8857,1.8919,1.8942,1.9,1.8936,1.9,1.9044,1.9001,1.9086,1.9101,1.9139,1.924,1.9285,1.9256,1.9447,1.9386,1.9395,1.9401,1.946,1.948,1.9498,1.926,1.9259,1.9258,0,0,1.8933,1.8952,1.9027,1.9051,1.9086,1.9088,1.9106,1.9135,1.9142,1.9227,1.9197,1.925,1.9344,1.9373,1.94,1.9544,1.9519,1.9561,1.9639,1.97,1.9716,1.9731,1.9785,1.9804,1.9573,1.9573,1.9573,0,1.8998,1.9083,1.9069,1.9135,1.9165,1.9127,1.9204,1.9229,1.928,1.9302,1.9268,1.9387,1.9409,1.9518,1.9553,1.9575,1.9598,1.9557,1.9715,1.973,1.9744,1.9794,1.9814,1.9578,1.9577,1.9577,1.9576,0,1.9162,1.9222,1.9278,1.9327,1.9363,1.9434,1.9433,1.9472,1.9459,1.9465,1.9554,1.958,1.9637,1.9662,1.965,1.9769,1.975,1.9716,1.9655,1.9769,1.9817,1.9836,1.9585,1.9583,1.9582,1.958,0,0,1.9338,1.9378,1.9399,1.9422,1.9458,1.9505,1.9577,1.963,1.9665,1.9702,1.9763,1.9844,1.9813,1.9843,1.9835,1.9888,2.0003,1.9847,1.9848,1.9877,2.0139,2.0165,2.0188,1.9986,1.999,1.9993,2.0136,0,1.9471,1.9593,1.9583,1.9699,1.9756,1.9722,1.9784,1.9815,1.9823,1.9874,1.9884,1.9942,1.9895,1.9914,1.9965,1.9978,2.0056,1.9968,2.0045,2.0048,2.0038,2.0212,2.024,2.0374,2.0154,2.0157,2.016,0,1.9643,1.9685,1.9807,1.9836,1.986,1.9916,1.9965,2.0013,2.0049,2.0051,2.0086,2.007,2.0144,2.0082,2.0185,2.0126,2.0157,2.0169,2.0174,2.0182,2.0111,2.0226,2.0416,2.0437,2.0188,2.0186,2.0184,0,1.9761,1.9848,1.9932,1.9952,1.9989,2.003,2.0047,2.0078,2.0112,2.0156,2.0179,2.0232,2.0261,2.0304,2.0303,2.0257,2.0409,2.0346,2.0415,2.0416,2.045,2.0448,2.0649,2.0468,2.0468,2.0467,2.0467,0,1.9912,1.9988,1.9986,2.0038,2.0123,2.0112,2.0198,2.0211,2.024,2.0296,2.027,2.0323,2.0318,2.0373,2.0373,2.046,2.0474,2.0479,2.0479,2.0482,2.0482,2.0503,2.0495,2.0473,2.0471,2.047,2.047,0,2.0058,2.0059,2.0149,2.0177,2.0185,2.0247,2.0272,2.0322,2.0328,2.04,2.0416,2.0427,2.049,2.0493,2.0566,2.0566,2.0673,2.0662,2.0661,2.0659,2.0729,2.0723,2.0952,2.0982,2.0781,2.0783,2.0784,0,2.0155,2.0213,2.0246,2.0281,2.0301,2.0357,2.0391,2.0384,2.0421,2.0466,2.0513,2.0573,2.0621,2.0724,2.074,2.0796,2.0787,2.0863,2.0795,2.0798,2.079,2.0787,2.0794,2.0877,2.0879,2.0881,2.0882,0,2.0327,2.0325,2.0374,2.0425,2.0466,2.0506,2.0543,2.0573,2.0571,2.0614,2.0678,2.0715,2.079,2.0851,2.0906,2.0927,2.0906,2.0903,2.0923,2.0928,2.0925,2.0929,2.0698,2.0898,2.0897,2.0896,2.0895,2.0894,2.0453,2.0503,2.0535,2.0591,2.0618,2.0654,2.0703,2.0715,2.0767,2.0827,2.082,2.0891,2.0927,2.0999,2.1024,2.1082,2.1056,2.1083,2.1091,2.1098,2.1106,2.0915,2.1092,2.1091,2.1091,2.109,2.109,0,2.0625,2.0644,2.0696,2.0748,2.0793,2.0767,2.0807,2.0847,2.091,2.0944,2.0992,2.1067,2.1127,2.1147,2.1206,2.1248,2.124,2.1264,2.1262,2.1267,2.1125,2.1103,2.127,2.127,2.127,2.127,2.127,2.127,2.072,2.0804,2.0806,2.0905,2.0924,2.0992,2.1018,2.1051,2.1079,2.1163,2.1212,2.1224,2.1254,2.1315,2.137,2.1375,2.1398,2.1427,2.1428,2.1295,2.1277,2.126,2.1239,2.1432,2.1432,2.1565,2.1567,2.1568]},{"header":{"parameterUnit":"m.s-1","parameterCategory":1,"la1":30.2991,"la2":30.254,"lo1":-89.0895,"lo2":-89.0444,"dy":0.0017,"dx":0.0017,"nx":28,"ny":28,"refTime":"2025-07-22T21:00:00:Z","depth":0,"parameterNumber":3,"parameterNumberName":"V-component_of_WINDS"},"data":[0,0,0,0,0,0,0,0,0,0,0,0,0,0,0,0,0,0,0,0,0,0,0,0,0,0,0,0,0,0,0,0,0,0,0,0,0,0,0,0,0,0,0,0,0,0,0,0,0,0,0,0,0,0,0,0,0,0,0.6952,0.6952,0,0.7,0.7001,0.7001,0.6905,0.6902,0.6898,0.6895,0.6945,0.6949,0.6953,0,0,0,0,0,0,0,0,0,0,0,0,0,0.6773,0.6777,0.6952,0.6952,0.6953,0.7,0.7001,0.7001,0.6905,0.6901,0.6898,0.6894,0.6943,0.6948,0.6953,0,0,0,0,0,0,0,0,0,0,0,0,0,0.6839,0.6778,0.6952,0.6911,0.6907,0.7,0.7001,0.7002,0.6906,0.6901,0.6897,0.6892,0.6942,0.6948,0.6954,0.7089,0,0,0.6974,0.6976,0,0,0,0,0,0,0,0,0.6836,0.6846,0.6916,0.6914,0.691,0.6942,0.6956,0.7031,0.6907,0.6907,0.6895,0.689,0.6947,0.6953,0.6973,0.7091,0.7093,0.6974,0.6978,0.6981,0.6983,0,0,0,0,0,0,0,0.6831,0.6843,0.6971,0.6917,0.6914,0.6889,0.6893,0.697,0.6953,0.6906,0.6899,0.6906,0.6945,0.6967,0.6973,0.7094,0.6974,0.698,0.6984,0.6986,0.7322,0.7327,0,0,0,0,0,0,0.6832,0.684,0.6969,0.6972,0.686,0.6896,0.6901,0.6936,0.6952,0.695,0.691,0.6902,0.6958,0.6966,0.6974,0.7131,0.6981,0.6987,0.6991,0.7317,0.7323,0.7328,0,0,0,0,0,0,0.6829,0.6844,0.6967,0.6904,0.6918,0.6904,0.6945,0.694,0.6961,0.6955,0.6952,0.6936,0.6955,0.6965,0.706,0.7131,0.699,0.6996,0.7311,0.7319,0.7326,0.7446,0,0,0,0,0,0,0.6824,0.6844,0.6896,0.6906,0.6922,0.7054,0.6949,0.6944,0.6973,0.6962,0.6978,0.6976,0.6952,0.7051,0.7067,0.7137,0.7001,0.7304,0.7314,0.7323,0.7435,0.7457,0.7475,0,0,0,0,0,0.6818,0.6928,0.6899,0.6915,0.6986,0.7058,0.7067,0.7037,0.6979,0.703,0.7026,0.6976,0.7121,0.7062,0.7078,0.7152,0.73,0.7311,0.7322,0.7427,0.7452,0.7474,0,0,0,0,0,0,0.6927,0.6929,0.6896,0.7014,0.7036,0.7041,0.7105,0.7065,0.7105,0.7093,0.7054,0.7058,0.716,0.7166,0.71,0.7281,0.72,0.7216,0.7274,0.7299,0.7318,0.7314,0.7006,0,0,0,0,0,0.6964,0.7023,0.7021,0.7125,0.7138,0.712,0.715,0.7124,0.7146,0.7155,0.7158,0.7181,0.7231,0.7265,0.7312,0.7436,0.7437,0.7495,0.7514,0.753,0.7544,0.7607,0.7632,0.7366,0.7366,0.7365,0,0,0.7043,0.7051,0.7091,0.7147,0.7161,0.7221,0.7129,0.7197,0.7241,0.7166,0.7255,0.7258,0.728,0.739,0.7438,0.7397,0.7617,0.7545,0.7558,0.7562,0.7621,0.7646,0.7669,0.7374,0.7372,0.7371,0,0,0.7216,0.7229,0.7315,0.7331,0.7354,0.7341,0.7362,0.7373,0.7372,0.746,0.7405,0.7456,0.7544,0.7562,0.7582,0.776,0.7714,0.7776,0.7878,0.794,0.7961,0.798,0.8041,0.8063,0.7789,0.779,0.779,0,0.731,0.7399,0.7365,0.7436,0.7461,0.7396,0.7482,0.7499,0.7536,0.7555,0.7509,0.7616,0.7627,0.7739,0.7782,0.7801,0.7822,0.7774,0.7961,0.7979,0.7996,0.8053,0.8077,0.7797,0.7796,0.7795,0.7795,0,0.7513,0.7575,0.7642,0.7678,0.7711,0.779,0.7766,0.7804,0.7775,0.7766,0.7856,0.7867,0.7913,0.7937,0.7911,0.8045,0.8018,0.7968,0.7885,0.8029,0.8082,0.8104,0.7807,0.7805,0.7803,0.7801,0,0,0.7757,0.7771,0.7796,0.7811,0.783,0.7877,0.7952,0.7996,0.8028,0.8056,0.8116,0.8191,0.8144,0.8167,0.8141,0.8196,0.8333,0.8138,0.8138,0.8172,0.8478,0.8515,0.8541,0.8303,0.8307,0.8311,0.8475,0,0.7926,0.8055,0.8025,0.8151,0.8207,0.8144,0.8209,0.8227,0.8221,0.8266,0.8259,0.8312,0.8246,0.826,0.8311,0.8306,0.8393,0.8293,0.8357,0.836,0.8352,0.8569,0.8609,0.8764,0.8496,0.85,0.8502,0,0.8142,0.8176,0.8308,0.8315,0.8338,0.8397,0.8433,0.8478,0.8497,0.8488,0.8514,0.8476,0.8548,0.8466,0.8564,0.8497,0.8521,0.8522,0.8527,0.8531,0.8439,0.8577,0.8813,0.8835,0.8535,0.8533,0.853,0,0.8304,0.8383,0.8471,0.8486,0.8498,0.854,0.8547,0.8561,0.8588,0.8621,0.8638,0.8679,0.8701,0.8732,0.8706,0.8649,0.8808,0.8724,0.8801,0.8802,0.8836,0.8834,0.9077,0.8855,0.8855,0.8854,0.8854,0,0.8495,0.8578,0.8543,0.8598,0.8687,0.8652,0.8741,0.8741,0.8753,0.8805,0.8754,0.8804,0.8767,0.8814,0.8794,0.8877,0.8888,0.8881,0.8875,0.8885,0.8885,0.8899,0.8887,0.886,0.8859,0.8858,0.8857,0,0.8691,0.8672,0.8763,0.8766,0.8769,0.8835,0.8837,0.8886,0.8875,0.8941,0.8955,0.8938,0.899,0.8967,0.9022,0.9008,0.9114,0.9094,0.9107,0.9102,0.9179,0.9171,0.9439,0.9471,0.923,0.9232,0.9234,0,0.8814,0.8876,0.8885,0.8915,0.8926,0.8977,0.9004,0.8971,0.9001,0.9026,0.9072,0.9119,0.9155,0.924,0.9232,0.9273,0.9252,0.9343,0.9258,0.9265,0.9251,0.9247,0.9252,0.936,0.9362,0.9365,0.9367,0,0.9033,0.902,0.9062,0.91,0.9134,0.9162,0.9186,0.9214,0.9182,0.9219,0.927,0.9298,0.9353,0.9399,0.9435,0.944,0.9398,0.9393,0.9413,0.9423,0.9428,0.9424,0.9152,0.9387,0.9385,0.9384,0.9383,0.9382,0.9195,0.9245,0.9259,0.9306,0.9321,0.9344,0.9389,0.9384,0.9426,0.9468,0.9445,0.9505,0.952,0.9563,0.9574,0.962,0.9584,0.9613,0.962,0.9627,0.9636,0.9422,0.9626,0.9626,0.9625,0.9625,0.9624,0,0.9409,0.9414,0.9458,0.9493,0.953,0.9486,0.951,0.9543,0.9596,0.9613,0.9649,0.9707,0.9752,0.9747,0.9787,0.9824,0.9805,0.9836,0.9832,0.9833,0.9667,0.9645,0.985,0.985,0.985,0.985,0.985,0.985,0.9525,0.9608,0.9596,0.9684,0.9688,0.9746,0.9763,0.9783,0.9796,0.9863,0.99,0.9896,0.9904,0.9944,0.9982,0.9979,0.9996,1.0033,1.0023,0.9868,0.9845,0.9824,0.9803,1.0037,1.0037,1.0184,1.0186,1.0187]}]]